GFSGL_925_temp_033.txt.gz
Temp
23 23 22 22 22 21 21 20 19 20 20 19 19 19 19 18 19 19 18 18 18 18 18 18 18 20 20 20 20 21 20 21 19 17 17 15 15 14 14 14 14 15 15
23 23 22 22 22 21 20 20 20 20 19 19 19 18 18 17 17 17 17 17 17 17 17 17 17 18 19 19 19 19 19 19 19 17 16 14 14 14 14 14 13 13 13
24 23 22 22 21 21 21 20 20 19 19 18 18 18 17 17 17 16 16 15 16 17 16 16 16 16 16 17 17 17 17 17 18 17 15 14 13 13 12 12 12 12 11
24 23 22 22 21 21 20 20 19 19 18 18 18 17 17 17 17 17 16 16 16 16 16 16 15 15 15 16 16 17 17 17 17 16 15 14 14 13 12 11 11 11 11
24 24 22 22 21 20 20 19 19 19 18 18 18 17 17 17 17 17 17 17 16 16 16 15 15 15 15 15 16 16 16 16 15 15 14 13 13 13 12 11 10 10 10
25 24 22 22 21 20 20 19 19 18 18 18 17 17 16 17 17 17 17 17 16 16 15 15 15 14 14 15 15 16 15 15 15 14 14 13 13 13 12 12 11 11 10
25 24 23 22 21 21 20 19 18 18 18 17 16 16 16 17 17 17 17 17 17 16 15 15 15 14 15 15 15 15 15 15 15 15 14 14 13 13 13 12 12 12 10
26 24 23 22 21 20 19 19 17 18 18 17 16 16 16 16 17 17 17 17 16 16 15 15 15 15 15 15 15 15 15 14 14 14 14 13 13 13 13 13 13 12 11
24 23 23 23 21 19 18 18 18 17 17 17 16 16 16 16 16 16 16 16 15 15 15 15 15 15 15 15 15 14 14 14 14 14 14 14 14 14 14 13 12 11 11
17 18 19 21 20 19 19 18 18 17 17 16 16 15 15 16 16 16 16 16 15 15 14 14 14 14 15 14 14 14 14 13 14 14 14 14 13 14 13 13 14 12 13
17 18 18 19 19 19 18 18 17 16 16 15 15 14 14 14 15 16 16 16 15 14 14 14 14 14 14 14 14 14 14 14 14 14 14 13 14 14 13 13 13 14 14
15 15 16 17 17 17 17 16 16 16 15 14 14 13 13 13 13 14 15 16 15 15 14 13 13 13 13 13 14 14 14 14 14 14 14 14 14 14 13 13 13 13 13
14 14 14 15 15 16 16 15 15 15 14 13 13 12 11 12 13 13 14 14 14 14 14 14 13 14 14 14 14 14 14 14 15 14 14 14 14 14 13 13 12 12 12
12 12 13 13 13 13 14 14 14 13 12 12 11 11 11 11 12 12 12 13 13 13 13 13 14 14 14 14 14 14 14 14 14 14 14 14 14 14 13 13 13 12 12
11 11 11 11 12 12 12 11 12 12 12 12 11 11 11 11 11 12 12 12 12 13 13 13 13 13 14 14 14 14 14 14 14 13 13 13 13 13 13 13 13 13 12
11 11 11 11 11 10 10 10 10 10 10 10 10 10 11 11 11 11 11 12 12 12 13 13 13 14 14 14 14 14 13 13 13 13 13 13 13 13 13 13 13 13 13
13 12 12 12 11 11 11 10 9 9 10 10 10 11 10 11 10 11 11 12 12 13 13 14 14 15 15 14 14 13 13 13 13 12 12 12 12 12 12 13 13 13 13
14 14 14 13 13 13 12 12 12 12 11 10 11 11 11 11 11 12 12 12 13 13 13 14 14 15 14 14 14 13 12 12 12 12 12 12 12 12 12 12 12 13 13
15 15 15 15 15 15 14 13 13 12 13 12 11 11 12 12 12 12 12 13 13 14 14 14 14 15 14 14 13 13 13 12 12 12 12 12 12 12 12 12 12 12 12
16 17 19 19 18 18 17 16 14 14 14 14 14 13 13 12 13 13 13 13 14 15 15 15 15 15 14 14 13 13 12 12 12 11 12 11 12 12 12 12 12 12 12
19 19 19 19 18 19 18 18 18 16 15 14 15 15 15 15 14 14 14 14 15 15 15 15 15 14 14 14 13 13 12 12 11 11 11 11 12 12 12 12 12 12 12
19 18 19 19 19 19 19 19 19 18 18 16 16 15 15 15 14 14 15 15 15 15 15 15 15 14 14 13 13 13 12 12 12 12 12 12 12 12 12 12 12 12 12
19 19 19 19 19 19 18 18 18 18 18 17 17 16 15 15 16 16 16 16 16 16 16 15 15 14 14 13 13 13 13 12 12 12 12 12 12 11 11 11 11 11 11
18 19 18 18 18 18 18 18 18 18 18 17 17 16 15 16 16 16 16 16 16 15 15 14 14 13 13 13 12 12 12 13 13 12 12 12 12 12 11 11 11 10 10
18 18 18 18 18 17 17 17 18 18 18 17 17 16 16 16 15 15 14 14 14 13 13 12 12 11 11 12 11 10 11 12 10 11 12 12 12 11 11 10 10 10 10
17 16 16 17 17 17 17 18 17 17 17 16 16 14 13 13 12 11 12 12 11 11 10 10 9 9 9 9 8 9 11 11 10 9 10 10 11 11 11 10 10 10 10

GFSGL_925_temp_036.txt.gz
Temp
22 22 22 21 21 20 19 19 20 19 19 19 18 18 17 17 18 18 18 18 18 18 18 18 18 20 20 20 20 20 20 19 17 16 15 14 14 14 14 14 14 14 14
22 22 22 21 21 20 20 20 19 19 18 18 18 17 17 17 17 17 17 17 17 17 16 17 17 18 19 19 19 19 19 20 18 16 14 13 13 13 13 13 13 13 13
22 22 22 21 20 20 20 20 19 18 18 17 17 17 17 16 16 16 16 16 16 16 16 15 16 16 17 17 18 18 18 18 17 16 14 13 12 12 12 12 11 12 11
22 22 21 21 20 20 20 19 19 18 18 17 17 17 17 17 17 17 17 16 16 15 15 15 15 16 16 16 16 17 17 17 16 15 14 13 13 12 12 11 10 11 10
22 22 21 21 20 20 19 19 18 18 18 17 17 17 17 17 17 16 16 16 16 15 15 15 15 15 15 16 17 17 17 16 15 14 14 13 13 12 12 11 10 10 10
23 22 21 21 20 20 19 19 18 18 17 17 17 17 17 17 17 17 16 15 15 15 15 15 15 15 15 15 16 16 16 16 15 14 14 13 13 12 12 11 10 10 10
23 22 21 20 20 19 19 18 18 17 17 17 16 16 17 17 17 17 16 16 15 15 15 15 15 15 14 15 15 15 15 15 15 15 14 13 13 13 12 11 11 12 10
23 23 20 20 19 18 18 18 18 18 17 16 16 16 16 16 16 17 17 16 15 15 15 15 15 15 15 15 15 15 14 14 14 14 14 13 13 13 13 13 12 11 11
23 23 21 18 19 18 18 18 17 17 17 16 16 16 16 16 16 16 16 15 15 15 14 14 14 15 14 14 15 14 14 13 13 13 13 13 14 14 13 13 12 11 10
18 19 19 19 18 18 18 17 17 17 16 16 15 15 15 15 16 16 16 16 15 14 14 14 14 14 14 14 14 14 14 13 13 13 13 13 14 13 13 13 13 12 12
17 17 18 19 18 18 18 17 17 17 16 15 15 14 14 14 15 15 15 16 15 15 14 14 14 14 14 14 13 13 13 13 13 13 13 13 13 13 13 13 13 12 12
15 16 17 18 17 17 17 16 16 16 15 14 14 13 13 13 14 15 15 15 15 15 14 14 13 13 13 13 14 14 15 15 14 14 14 13 13 13 13 13 12 13 13
14 14 15 16 17 17 16 16 15 15 14 13 13 12 12 12 12 13 14 14 14 14 14 14 13 13 14 14 14 14 14 14 14 14 14 13 13 13 13 13 12 12 12
13 13 14 15 15 15 15 15 14 14 13 12 12 11 11 11 11 12 12 13 12 13 13 13 13 14 14 14 14 14 14 14 14 13 13 13 13 13 13 13 13 12 12
12 12 13 13 13 13 13 12 12 12 13 12 11 11 11 11 11 12 12 12 13 13 13 13 13 13 14 14 13 13 13 13 13 13 13 13 13 13 13 13 12 12 11
12 12 12 12 11 11 11 10 11 11 11 11 11 11 11 11 11 11 12 12 12 12 13 13 13 14 14 14 14 13 13 13 13 13 12 12 12 12 12 12 12 12 12
13 12 11 11 11 11 11 11 10 10 10 11 11 11 11 11 11 11 11 12 12 13 13 13 13 14 13 13 13 13 13 13 12 12 12 12 12 12 12 12 12 12 12
13 13 13 12 12 12 13 13 12 12 11 11 11 11 11 11 11 11 12 12 13 13 13 13 13 13 14 14 14 13 12 12 12 12 11 12 12 11 12 12 12 11 12
13 13 13 13 13 14 13 13 13 13 13 13 12 12 12 12 12 12 12 13 14 14 14 14 15 14 14 14 14 13 13 12 12 11 11 11 11 11 11 11 11 11 11
15 15 15 14 14 13 14 14 13 13 14 14 14 13 13 12 13 13 14 14 14 14 14 15 15 14 14 14 13 13 13 12 12 11 11 11 11 11 11 11 11 11 11
16 16 16 16 15 15 15 15 15 15 15 15 15 15 15 15 15 15 15 15 15 15 14 14 15 14 14 13 13 13 12 12 12 11 11 11 11 11 11 11 11 11 11
17 18 18 18 18 17 16 16 16 15 15 15 15 15 14 14 14 14 15 15 15 15 15 14 14 15 14 14 13 13 13 13 12 12 12 12 11 12 11 11 11 11 11
18 18 18 17 18 18 18 18 17 16 17 17 17 16 15 15 15 15 15 15 15 15 15 14 13 13 13 12 12 13 12 12 12 12 12 12 12 12 12 11 11 11 11
19 18 18 18 18 18 18 17 18 17 17 17 17 16 15 15 14 14 14 14 14 14 14 13 13 12 12 11 11 11 11 11 11 11 11 12 11 10 11 11 11 11 10
18 17 17 17 17 17 18 18 17 17 17 16 15 14 13 13 13 13 13 12 12 12 11 11 10 10 10 10 10 9 9 10 10 10 10 10 10 11 11 9 10 11 10
17 17 17 17 17 16 17 17 15 15 14 13 12 12 11 11 11 11 10 10 10 9 8 8 8 7 7 7 7 7 8 8 8 7 8 8 8 8 8 9 8 8 9

GFSGL_925_temp_042.txt.gz
Temp
19 19 20 20 20 19 19 18 18 18 17 17 17 17 17 17 17 17 17 17 17 17 16 17 17 17 18 19 19 20 19 19 16 15 15 14 14 14 14 14 14 14 13
19 19 21 20 20 19 18 18 18 18 17 16 17 17 17 17 17 17 16 16 16 16 16 17 17 17 18 18 18 19 18 18 17 15 13 13 12 13 13 13 12 12 12
22 20 20 20 19 19 18 18 18 17 17 17 17 16 17 16 17 16 16 15 14 15 16 16 16 17 17 17 17 17 17 17 17 15 13 13 12 12 12 11 12 12 12
20 19 20 20 20 19 19 18 18 17 17 17 16 16 16 16 16 16 16 15 14 15 15 16 16 16 16 16 17 16 16 16 16 15 13 12 12 11 11 11 10 10 10
20 19 20 20 19 19 18 18 17 17 17 16 16 16 16 16 16 16 16 15 15 15 15 15 15 16 16 16 17 16 16 15 15 14 13 13 12 11 11 11 10 10 10
20 20 19 19 19 18 18 18 17 17 16 16 16 16 16 16 15 15 15 15 15 15 15 14 15 15 15 15 16 15 15 15 14 14 13 13 12 12 12 11 11 10 10
20 19 19 18 18 18 18 17 17 17 16 16 16 16 16 16 16 16 15 15 15 15 15 15 15 14 14 15 15 15 15 15 15 15 13 13 13 13 12 11 11 11 10
19 18 18 19 19 19 18 17 17 17 16 15 15 16 16 16 16 16 15 15 15 15 15 14 14 14 14 14 14 14 14 14 14 14 14 13 13 13 12 12 12 11 11
20 20 20 20 18 19 18 17 16 16 15 15 15 15 16 15 15 15 15 15 15 14 14 14 14 14 14 14 14 13 13 13 13 14 14 14 13 12 12 12 12 11 10
19 19 18 21 21 20 18 17 16 16 15 15 14 15 15 15 15 15 15 15 14 14 14 14 14 14 13 13 14 14 13 13 13 13 14 14 13 13 12 12 11 11 11
18 18 17 18 18 18 18 17 16 15 15 14 14 14 14 15 15 14 14 15 15 14 13 13 13 13 13 13 13 13 13 13 13 13 13 13 13 12 12 12 12 11 10
15 15 15 17 17 17 17 16 16 15 15 14 14 13 13 14 14 14 14 14 13 14 13 13 13 13 13 14 14 14 14 13 13 13 13 13 13 12 12 12 12 12 12
15 15 15 16 17 17 16 15 15 15 14 13 13 13 12 13 13 14 14 13 13 13 13 13 13 13 13 13 13 14 13 13 13 13 13 13 12 12 12 12 12 11 11
14 14 14 15 15 15 15 15 15 14 13 12 12 12 12 12 12 12 12 12 12 13 13 13 13 13 13 13 13 13 13 13 13 13 13 12 12 12 12 12 12 12 12
13 13 14 14 14 14 14 14 14 14 14 13 13 13 12 11 11 12 12 12 12 13 13 13 13 13 13 13 13 13 13 13 13 12 12 12 12 12 12 11 11 12 11
13 12 12 13 13 13 13 12 12 13 12 12 12 12 11 11 11 11 12 12 12 13 13 13 14 14 14 14 13 13 12 12 12 12 11 11 11 11 11 11 11 11 11
12 12 12 12 12 12 12 12 11 11 11 11 11 11 11 11 11 11 11 12 12 13 13 13 14 14 14 14 13 13 13 12 12 11 11 11 11 10 10 10 10 10 10
12 12 12 12 12 12 12 12 12 11 11 10 10 10 10 10 11 11 11 11 12 12 13 13 14 14 14 13 13 13 12 12 12 11 11 10 10 10 10 10 10 10 10
12 12 12 12 12 12 12 12 12 11 11 11 10 10 10 11 11 11 12 12 12 13 13 13 14 14 14 13 13 13 12 12 11 11 11 10 10 10 10 10 10 10 10
12 12 13 13 12 12 12 12 12 12 12 12 12 12 11 11 11 12 12 12 13 13 13 13 14 14 13 13 13 12 12 12 12 11 11 11 10 10 10 10 10 10 10
13 13 13 13 13 14 13 13 13 13 13 13 13 13 13 13 13 13 13 13 13 14 14 14 14 14 14 13 13 12 12 12 11 11 11 11 10 10 11 11 11 10 10
14 14 14 14 14 14 14 14 13 13 13 13 14 14 14 13 14 14 14 13 13 13 14 14 13 13 13 13 13 12 11 11 11 11 10 10 10 10 10 9 9 9 9
14 14 14 14 15 15 14 14 14 14 15 14 14 14 14 14 14 13 13 13 13 13 14 13 13 11 11 11 11 12 10 10 9 9 9 9 9 9 8 8 7 8 8
15 16 16 16 16 16 16 16 16 16 15 15 15 14 14 14 13 13 13 13 13 12 12 12 10 10 9 9 9 8 9 8 8 8 7 7 7 7 7 6 6 6 7
16 16 16 16 16 16 16 16 16 15 15 15 15 15 14 13 12 13 13 13 11 10 10 9 9 8 8 8 7 7 7 7 7 7 6 6 5 5 5 4 4 5 5
16 17 17 16 16 16 16 16 15 15 15 15 14 13 13 12 12 11 11 10 10 9 9 8 7 7 7 6 5 5 4 4 5 5 4 4 4 3 2 2 2 3 3

GFSGL_925_temp_045.txt.gz
Temp
18 20 20 19 19 18 18 18 17 17 16 16 16 16 16 15 16 16 16 16 16 16 17 17 17 18 18 19 19 19 20 19 17 15 14 14 13 13 13 14 13 13 13
18 20 19 18 18 18 17 17 17 16 16 16 16 16 15 15 15 16 16 16 16 15 16 16 17 17 17 17 18 18 18 18 17 15 13 12 12 12 12 12 12 12 12
19 18 18 18 18 18 17 17 17 16 16 16 16 16 15 15 15 15 15 15 15 15 15 15 16 16 16 17 17 17 17 17 16 15 13 12 11 12 11 11 12 11 12
20 19 19 18 18 18 17 17 17 16 16 16 16 15 15 15 15 15 15 15 15 15 16 15 15 15 16 16 16 16 16 16 15 14 13 12 11 11 11 11 11 11 11
20 20 19 18 18 18 17 17 16 16 16 15 15 15 16 16 16 15 15 15 15 14 14 15 15 15 16 16 17 16 15 15 14 13 13 12 12 11 11 11 10 11 11
20 20 19 18 18 18 17 17 16 17 16 15 15 16 16 16 15 16 15 15 14 15 15 14 14 14 15 15 15 15 15 15 15 15 14 13 12 12 12 11 10 12 13
20 19 18 18 18 17 17 17 16 16 16 16 15 15 15 15 15 15 16 14 14 14 14 14 15 14 14 14 15 15 15 15 15 15 14 14 13 12 12 11 11 11 11
19 18 18 18 19 17 17 16 15 16 16 15 15 15 15 15 15 15 15 14 13 13 13 13 14 13 14 14 14 14 13 14 14 14 13 13 12 12 12 12 12 12 11
18 18 18 18 18 18 16 16 16 17 15 16 16 15 14 15 15 15 15 14 13 13 14 14 13 13 14 14 14 13 13 13 14 14 14 14 13 13 12 13 13 12 13
18 19 18 19 19 18 19 18 17 17 15 14 15 15 15 15 15 15 14 15 14 14 13 13 14 13 13 13 13 14 14 13 13 13 13 12 13 13 13 12 14 15 15
17 17 17 17 18 18 18 18 16 15 14 14 14 15 15 15 14 15 14 14 14 14 14 13 13 13 14 14 14 13 14 13 13 13 14 14 13 13 13 12 12 13 14
17 16 17 17 17 17 17 16 16 16 15 14 14 13 14 14 14 14 14 14 14 14 13 13 13 13 14 14 14 14 13 13 13 14 14 14 14 13 13 12 11 12 11
15 15 16 17 17 16 16 16 15 15 15 13 13 13 12 13 13 13 13 13 13 14 13 13 13 13 13 13 13 14 13 14 14 14 14 14 13 12 12 12 11 12 12
14 14 14 15 15 16 16 15 14 13 13 13 13 12 12 12 12 12 12 12 12 13 13 13 13 13 13 13 13 13 13 13 13 13 13 12 12 12 12 12 13 13 13
13 13 14 14 14 14 14 13 13 14 15 14 13 13 12 11 12 12 12 12 12 12 13 12 13 14 14 14 13 13 13 13 13 13 13 13 13 12 12 12 12 12 13
13 12 13 13 12 12 13 12 13 13 13 13 13 13 12 12 12 12 12 12 12 13 13 14 15 15 15 14 14 14 13 13 12 12 12 12 12 12 12 12 12 12 13
13 12 12 12 12 12 11 11 11 11 11 11 11 11 12 12 11 11 12 12 12 13 14 15 15 15 15 14 14 14 14 13 12 12 12 12 12 12 12 12 12 12 13
12 12 12 12 11 11 11 11 11 11 12 11 10 11 11 11 11 11 11 12 12 13 14 15 15 14 14 14 14 14 13 13 12 12 12 12 12 12 12 12 12 12 12
12 12 11 12 12 12 12 13 14 14 13 12 10 10 10 10 11 11 11 12 14 15 14 14 14 14 14 13 13 12 12 13 12 12 12 12 12 12 12 12 12 11 11
13 12 13 13 12 13 13 14 14 14 14 13 14 13 11 11 12 12 12 12 13 14 14 14 14 13 13 13 13 12 12 12 12 12 12 12 12 11 12 12 12 12 12
14 12 13 14 14 14 15 15 15 15 15 15 14 13 12 13 14 14 13 13 14 14 14 14 14 14 13 13 13 13 13 13 12 12 12 12 11 12 12 12 12 12 12
14 14 14 16 15 15 15 15 15 15 15 15 15 13 13 12 14 14 14 14 14 13 13 13 14 14 13 13 12 12 13 12 11 11 10 10 11 11 11 11 11 12 12
15 15 15 15 15 15 14 15 15 16 16 16 16 15 13 13 14 14 14 14 13 12 12 12 12 10 10 10 11 10 10 9 8 8 8 9 9 10 10 10 11 11 11
15 15 15 16 15 16 16 16 16 15 16 16 16 15 15 14 15 14 13 14 13 12 11 10 9 8 9 8 8 8 8 8 8 7 7 7 8 8 8 9 9 9 9
15 15 16 16 16 16 17 17 17 17 16 15 15 15 15 14 13 12 11 10 11 9 8 8 8 8 8 8 7 8 8 8 8 7 6 6 6 5 6 7 7 7 8
15 15 16 16 16 17 17 17 18 16 16 15 14 14 13 12 10 10 11 11 10 8 7 7 8 8 7 6 6 6 6 6 6 5 4 4 5 5 5 5 5 6 6

GFSGL_925_temp_048.txt.gz
Temp
19 19 19 19 20 20 20 20 19 19 19 18 18 18 19 19 18 17 17 18 18 18 18 18 20 19 19 19 19 20 20 20 18 14 14 13 13 13 13 13 13 12 12
18 17 18 20 20 20 20 19 19 18 18 18 18 18 18 18 18 17 17 17 18 17 18 18 19 19 19 19 19 19 19 19 20 14 13 12 12 12 12 12 12 12 11
18 18 20 21 21 20 20 19 19 19 19 18 18 18 18 18 18 18 17 17 17 17 17 17 18 18 19 19 18 17 17 17 17 14 12 12 11 11 11 12 11 12 11
19 20 21 22 21 20 20 19 19 19 19 18 18 18 18 18 18 18 18 18 18 17 17 17 16 17 18 18 18 18 17 15 15 14 13 12 12 11 11 11 11 11 12
21 21 22 22 21 20 20 20 19 19 18 18 18 18 19 19 18 18 18 18 18 17 17 17 15 16 16 17 18 18 18 18 14 13 13 12 11 11 12 12 12 12 12
23 22 21 21 21 20 19 19 19 18 18 18 19 19 19 18 16 17 18 18 17 17 17 17 17 16 15 16 16 16 16 17 16 16 15 14 13 13 12 13 14 15 15
23 22 20 20 20 20 20 20 19 19 18 18 18 19 18 16 16 16 16 17 17 17 17 18 18 17 17 17 16 15 15 16 16 17 16 16 15 15 14 13 13 13 14
23 20 19 19 19 19 19 19 18 18 18 18 18 18 17 16 15 16 16 17 16 16 16 16 16 15 15 17 16 15 14 14 15 16 15 15 14 14 14 14 13 13 13
22 19 19 18 18 18 18 17 17 16 16 17 17 17 17 15 16 16 17 17 16 16 15 15 15 14 14 15 16 15 15 15 14 15 14 14 14 14 14 16 15 16 16
22 20 18 18 18 19 17 17 16 16 17 18 16 15 16 15 16 15 16 16 16 17 16 14 14 13 14 15 16 16 16 16 15 15 14 14 14 13 13 14 16 17 18
20 20 19 19 19 19 17 16 17 17 17 17 16 14 14 14 15 15 15 17 16 15 16 16 14 14 14 14 15 15 15 15 14 16 17 17 16 16 15 14 13 15 16
18 18 18 18 19 19 18 16 16 15 16 16 15 14 13 13 14 14 15 15 15 14 15 14 14 14 14 14 14 14 14 15 16 17 17 17 16 16 15 14 13 13 13
18 18 18 18 18 18 18 18 17 15 15 15 14 16 13 13 13 13 13 14 14 14 14 14 14 14 14 14 14 14 15 16 17 17 17 16 15 14 13 14 14 13 12
16 16 16 16 16 16 16 17 16 14 14 12 13 13 13 13 13 12 12 12 13 13 13 13 13 14 15 15 15 15 15 15 16 16 16 15 15 15 15 14 15 15 15
15 15 14 14 15 14 15 14 14 14 14 14 14 14 13 14 14 14 13 12 13 14 14 13 15 16 17 16 16 16 16 16 15 15 15 15 15 15 15 14 14 15 15
15 16 16 14 12 12 13 12 13 13 13 13 14 14 13 13 13 12 13 13 13 13 14 16 17 17 17 17 17 16 16 15 15 15 15 15 15 15 14 15 15 15 15
15 15 14 13 11 11 11 11 11 11 12 13 13 12 12 13 12 12 12 12 13 13 15 17 17 17 17 17 17 17 16 15 13 15 15 15 15 15 15 15 15 15 15
15 14 15 14 13 12 11 11 11 12 11 11 11 12 12 12 12 12 12 12 13 14 17 18 17 17 17 17 16 16 16 15 15 15 15 15 15 14 15 15 15 15 15
15 15 15 15 14 14 13 13 13 14 15 15 12 11 11 11 11 11 12 14 17 17 17 17 17 17 16 16 16 15 15 15 15 15 15 15 15 15 15 15 15 14 13
15 15 15 16 14 15 15 17 17 18 17 17 16 16 12 11 12 13 13 15 17 18 18 17 17 16 16 16 16 15 15 15 15 15 15 15 15 15 15 15 15 15 15
15 15 15 17 18 18 19 19 19 19 19 18 18 17 15 16 17 17 17 16 17 17 17 17 17 17 16 16 16 16 16 16 16 15 15 15 15 14 14 14 15 15 15
17 17 17 19 19 19 19 19 19 19 19 19 18 14 14 15 18 18 17 17 17 17 17 17 17 17 17 17 16 16 16 16 16 15 14 14 14 14 14 14 14 14 14
18 18 19 19 19 18 18 19 19 19 19 19 19 17 15 17 18 18 17 17 17 17 16 15 16 16 16 14 13 13 14 14 13 12 12 13 13 13 13 13 13 13 13
18 19 19 19 19 18 19 19 19 19 19 19 19 19 18 17 18 18 18 17 15 14 14 14 14 15 13 12 12 11 11 9 10 11 10 11 11 11 11 11 12 12 12
19 19 19 19 19 19 19 19 20 20 19 19 19 17 17 18 18 18 17 14 14 14 13 13 13 11 10 10 10 9 9 9 9 9 8 9 9 9 9 10 10 10 10
17 18 19 19 19 19 19 20 20 20 19 18 17 17 17 17 18 17 14 12 12 11 11 11 11 10 9 9 8 9 9 8 8 8 8 8 8 9 9 9 9 9 10